EUTELSAT 8 WEST B

Last updated on Jan. 17, 2021, 6:29 a.m. UTC

1 40875U 15039B   21016.84702064 -.00000070  00000-0  00000-0 0  9991
2 40875   0.0632 356.6578 0002272 328.5495  88.2016  1.00271005 19827
UTC
Height (km)
Latitude
Longitude
Inclination
Orbital Period
UTC large
Height (km)
Speed (km/s)
/
Latitude / Longitude
Inclination (degrees)
Orbital Period (minutes)
Azimuth
Elevation
Range (km)
Doppler Factor
iOS Compass Heading
iOS Angle

Next 30 passes for location: Hong Kong

Rise time Rise Azimuth (degrees) Set time Set Azimuth (degrees) Duration Max altitude (degrees)

No matching passes for this satellites